• In Hungary
  • List of Countries
  • For 7 days
  • Water Temperature
  • Satellite Maps
  • Weather Map
  • News
  • Weather Widgets
  • user-avatar
    Login

    Hourly Weather Streamwood

    Today, 19 September, Wednesday

    Time Temperature Precipitation Wind Pressure Humidity
    00:00 +19°C° 0 mm 2 mps 740 mmHg 86%
    01:00 +18°C° 0 mm 2 mps 740 mmHg 88%
    02:00 +18°C° 0 mm 2 mps 740 mmHg 89%
    03:00 +18°C° 0 mm 3 mps 740 mmHg 90%
    04:00 +18°C° 0 mm 3 mps 740 mmHg 90%
    05:00 +18°C° 0 mm 2 mps 740 mmHg 90%
    06:00 +18°C° 0 mm 2 mps 740 mmHg 92%
    07:00 +20°C° 0 mm 2 mps 741 mmHg 86%
    08:00 +21°C° 0 mm 2 mps 741 mmHg 80%
    09:00 +24°C° 0 mm 3 mps 741 mmHg 74%
    10:00 +25°C° 0 mm 3 mps 741 mmHg 70%
    11:00 +26°C° 0 mm 3 mps 741 mmHg 65%
    12:00 +28°C° 0 mm 3 mps 741 mmHg 60%
    13:00 +28°C° 0 mm 3 mps 741 mmHg 60%
    14:00 +28°C° 0 mm 3 mps 740 mmHg 61%
    15:00 +28°C° 0 mm 3 mps 740 mmHg 61%
    16:00 +26°C° 0 mm 3 mps 740 mmHg 65%
    17:00 +25°C° 0 mm 3 mps 739 mmHg 69%
    18:00 +24°C° 0 mm 3 mps 739 mmHg 73%
    19:00 +22°C° 0.2 mm 3 mps 739 mmHg 77%
    20:00 +22°C° 0.2 mm 3 mps 740 mmHg 80%
    21:00 +21°C° 0.2 mm 3 mps 740 mmHg 83%
    22:00 +21°C° 0.4 mm 3 mps 740 mmHg 84%
    23:00 +21°C° 0.4 mm 2 mps 740 mmHg 85%

    Tomorrow, 20 September, Thursday

    Time Temperature Precipitation Wind Pressure Humidity
    00:00 +21°C° 0.4 mm 2 mps 740 mmHg 87%
    01:00 +21°C° 1.4 mm 2 mps 740 mmHg 88%
    02:00 +21°C° 1.4 mm 2 mps 739 mmHg 90%
    03:00 +21°C° 1.4 mm 2 mps 739 mmHg 92%
    04:00 +21°C° 0.6 mm 3 mps 739 mmHg 93%
    05:00 +22°C° 0.6 mm 3 mps 739 mmHg 93%
    06:00 +22°C° 0.6 mm 3 mps 739 mmHg 94%
    07:00 +23°C° 0 mm 4 mps 739 mmHg 90%
    08:00 +26°C° 0 mm 4 mps 739 mmHg 86%
    09:00 +27°C° 0 mm 4 mps 739 mmHg 83%
    10:00 +28°C° 0.3 mm 4 mps 739 mmHg 77%
    11:00 +30°C° 0.3 mm 5 mps 739 mmHg 71%
    12:00 +32°C° 0.3 mm 5 mps 738 mmHg 65%
    13:00 +33°C° 0 mm 5 mps 738 mmHg 65%
    14:00 +33°C° 0 mm 5 mps 737 mmHg 65%
    15:00 +33°C° 0 mm 5 mps 736 mmHg 65%
    16:00 +32°C° 0.1 mm 5 mps 736 mmHg 69%
    17:00 +30°C° 0.1 mm 6 mps 736 mmHg 73%
    18:00 +28°C° 0.1 mm 6 mps 736 mmHg 78%
    19:00 +28°C° 0 mm 6 mps 735 mmHg 78%
    20:00 +28°C° 0 mm 7 mps 735 mmHg 78%
    21:00 +27°C° 0 mm 7 mps 735 mmHg 78%
    22:00 +27°C° 0 mm 7 mps 735 mmHg 77%
    23:00 +27°C° 0 mm 7 mps 735 mmHg 75%

    Day after tomorrow, 21 September, Friday

    Time Temperature Precipitation Wind Pressure Humidity
    00:00 +27°C° 0 mm 8 mps 735 mmHg 73%
    01:00 +26°C° 0.4 mm 8 mps 735 mmHg 76%
    02:00 +26°C° 0.4 mm 8 mps 735 mmHg 78%
    03:00 +24°C° 0.4 mm 8 mps 734 mmHg 80%
    04:00 +24°C° 0.2 mm 8 mps 734 mmHg 81%
    05:00 +24°C° 0.2 mm 8 mps 734 mmHg 82%
    06:00 +24°C° 0.2 mm 8 mps 734 mmHg 83%
    07:00 +23°C° 0.1 mm 7 mps 735 mmHg 83%
    08:00 +23°C° 0.1 mm 7 mps 736 mmHg 82%
    09:00 +23°C° 0.1 mm 6 mps 737 mmHg 82%
    10:00 +23°C° 0 mm 6 mps 737 mmHg 78%
    11:00 +22°C° 0 mm 6 mps 738 mmHg 74%
    12:00 +22°C° 0 mm 6 mps 738 mmHg 71%
    13:00 +21°C° 0 mm 6 mps 739 mmHg 71%
    14:00 +20°C° 0 mm 6 mps 739 mmHg 72%
    15:00 +19°C° 0 mm 6 mps 740 mmHg 73%
    16:00 +17°C° 0 mm 6 mps 740 mmHg 72%
    17:00 +16°C° 0 mm 6 mps 741 mmHg 70%
    18:00 +15°C° 0 mm 6 mps 742 mmHg 69%
    19:00 +15°C° 0 mm 5 mps 743 mmHg 70%
    20:00 +14°C° 0 mm 5 mps 743 mmHg 70%
    21:00 +14°C° 0 mm 5 mps 744 mmHg 71%
    22:00 +13°C° 0 mm 5 mps 745 mmHg 71%
    23:00 +13°C° 0 mm 5 mps 745 mmHg 71%

    22 September, Saturday

    Time Temperature Precipitation Wind Pressure Humidity
    00:00 +12°C° 0 mm 4 mps 745 mmHg 71%
    01:00 +12°C° 0 mm 4 mps 745 mmHg 73%
    02:00 +11°C° 0 mm 4 mps 745 mmHg 74%
    03:00 +10°C° 0 mm 4 mps 746 mmHg 75%
    04:00 +10°C° 0 mm 4 mps 746 mmHg 77%
    05:00 +10°C° 0 mm 3 mps 746 mmHg 79%
    06:00 +9°C° 0 mm 3 mps 746 mmHg 80%
    07:00 +11°C° 0 mm 3 mps 746 mmHg 76%
    08:00 +13°C° 0 mm 3 mps 747 mmHg 72%
    09:00 +16°C° 0 mm 3 mps 747 mmHg 68%
    10:00 +17°C° 0 mm 2 mps 747 mmHg 64%
    11:00 +18°C° 0 mm 2 mps 746 mmHg 60%
    12:00 +20°C° 0 mm 1 mps 746 mmHg 56%
    13:00 +19°C° 0 mm 2 mps 746 mmHg 55%
    14:00 +20°C° 0 mm 2 mps 745 mmHg 55%
    15:00 +20°C° 0 mm 2 mps 745 mmHg 54%
    16:00 +19°C° 0 mm 2 mps 745 mmHg 59%
    17:00 +17°C° 0 mm 2 mps 745 mmHg 65%
    18:00 +16°C° 0 mm 2 mps 745 mmHg 70%
    19:00 +15°C° 0 mm 2 mps 745 mmHg 72%
    20:00 +14°C° 0 mm 2 mps 745 mmHg 74%
    21:00 +14°C° 0 mm 2 mps 746 mmHg 77%
    22:00 +13°C° 0 mm 2 mps 746 mmHg 78%
    23:00 +13°C° 0 mm 2 mps 746 mmHg 78%

    23 September, Sunday

    Time Temperature Precipitation Wind Pressure Humidity
    00:00 +13°C° 0 mm 1 mps 746 mmHg 79%
    01:00 +13°C° 0 mm 1 mps 746 mmHg 80%
    02:00 +13°C° 0 mm 1 mps 745 mmHg 81%
    03:00 +12°C° 0 mm 1 mps 745 mmHg 81%
    04:00 +12°C° 0 mm 2 mps 746 mmHg 82%
    05:00 +12°C° 0 mm 2 mps 746 mmHg 82%
    06:00 +12°C° 0 mm 2 mps 746 mmHg 83%
    07:00 +14°C° 0 mm 2 mps 746 mmHg 78%
    08:00 +16°C° 0 mm 3 mps 747 mmHg 72%
    09:00 +18°C° 0 mm 3 mps 747 mmHg 67%
    10:00 +19°C° 0 mm 3 mps 747 mmHg 63%
    11:00 +20°C° 0 mm 3 mps 746 mmHg 59%
    12:00 +21°C° 0 mm 3 mps 746 mmHg 55%
    13:00 +21°C° 0 mm 3 mps 745 mmHg 55%
    14:00 +21°C° 0 mm 3 mps 745 mmHg 55%
    15:00 +21°C° 0 mm 3 mps 744 mmHg 55%
    16:00 +20°C° 0 mm 3 mps 744 mmHg 60%
    17:00 +19°C° 0 mm 3 mps 744 mmHg 64%
    18:00 +17°C° 0 mm 3 mps 744 mmHg 69%
    19:00 +17°C° 0 mm 3 mps 744 mmHg 71%
    20:00 +16°C° 0 mm 3 mps 744 mmHg 73%
    21:00 +15°C° 0 mm 4 mps 744 mmHg 75%
    22:00 +15°C° 0 mm 4 mps 744 mmHg 77%
    23:00 +14°C° 0 mm 4 mps 743 mmHg 78%

    24 September, Monday

    Time Temperature Precipitation Wind Pressure Humidity
    00:00 +14°C° 0 mm 4 mps 743 mmHg 79%
    01:00 +14°C° 0 mm 4 mps 743 mmHg 82%
    02:00 +14°C° 0 mm 3 mps 743 mmHg 85%
    03:00 +13°C° 0 mm 3 mps 743 mmHg 88%
    04:00 +13°C° 0 mm 3 mps 742 mmHg 88%
    05:00 +13°C° 0 mm 3 mps 742 mmHg 88%
    06:00 +12°C° 0 mm 3 mps 742 mmHg 89%
    07:00 +14°C° 0 mm 3 mps 742 mmHg 83%
    08:00 +17°C° 0 mm 3 mps 742 mmHg 77%
    09:00 +18°C° 0 mm 3 mps 742 mmHg 71%
    10:00 +20°C° 0 mm 2 mps 741 mmHg 66%
    11:00 +21°C° 0 mm 2 mps 741 mmHg 60%
    12:00 +24°C° 0 mm 2 mps 741 mmHg 55%
    13:00 +24°C° 0 mm 2 mps 740 mmHg 57%
    14:00 +24°C° 0 mm 3 mps 739 mmHg 59%
    15:00 +24°C° 0 mm 3 mps 739 mmHg 62%
    16:00 +22°C° 0 mm 3 mps 739 mmHg 67%
    17:00 +21°C° 0 mm 2 mps 739 mmHg 72%
    18:00 +20°C° 0 mm 2 mps 738 mmHg 78%
    19:00 +20°C° 0 mm 2 mps 739 mmHg 80%
    20:00 +19°C° 0 mm 2 mps 739 mmHg 82%
    21:00 +19°C° 0 mm 2 mps 739 mmHg 84%
    22:00 +19°C° 0 mm 2 mps 738 mmHg 85%
    23:00 +18°C° 0 mm 2 mps 738 mmHg 86%
    Show more